DELTA 1 DEB, 21934

Orbit data source: Space-Track

DELTA 1 DEB, 21934 is space debris in SSO originally from a launch on Thu, 12 Jun 1975 UTC launched from the Air Force Western Test Range (AFWTR). Debris objects in space refer to the collection of defunct objects orbiting the Earth. Examples of debris include non-operational satellites, rocket bodies, and fragments generated from explosions, collisions, or faulty payload assembly.

Loading next visibility...
Identifier
21934, 1975-052JU
Orbit
SSO
Country
Flag of USUS
Related business
Manufacturer
Unknown
Mission
Spacecraft
Bus & Motor
Unknown
Mass
Unknown
Launch date (UTC)
1975-06-12 (51 years ago)
Launch vehicle
Unknown
Launch site
Air Force Western Test Range (AFWTR)
Object type
Payload
Rocket body
Debris
Shape & HBR
Unknown shape, 0.1 m
Radar Cross Section
Small (<0.1 m²)

Expand to show TLE details & history
Last TLE update: 2 days ago

TLE from 2 days ago
0 DELTA 1 DEB
1 21934U 75052JU  26125.65768821 -.00000019  00000-0  48279-4 0  9992
2 21934  99.6796  18.5421 0293793 106.9788 284.3036 12.93110095638048
Epoch: 2026-05-05T15:47Z
TLE epoch observation values (Epoch: 2026-05-05T15:47:04.261Z)
Latitude
27.59915°
Longitude
-86.84485°
Altitude
1,243.034 km
Speed
7.259 km/s
True Right ascension
00h 53m 48s
True Declination
27° 28' 02"
Sunlit
Object was in daylight at epoch
Visualization orbit readout
Latitude
Unknown
Longitude
Unknown
Altitude
Unknown
Speed
Unknown
Apparent Right ascension
Unknown
Apparent Declination
Unknown
Sunlit
N/A
Visualization observer readout
Local Sidereal Time
17:22:20
Azimuth
Unknown
Elevation
Unknown
Doppler factor
Unknown
Orbital elements
Apogee altitude
1,511.763 km
Perigee altitude
1,061.395 km
Semi-major axis
7,664.716 km
Eccentricity
0.02938
Inclination
99.6796°
RAAN
18.5421°
Arg. of periapsis
106.9788°
True anomaly
281.0133°
Mean anomaly
284.3036°
Eccentric anomaly
282.66122°
Mean motion
3.23444 °/min
Orbital period
111.3 mins
BSTAR
0.000048279
Loading maneuver chart data...
Computing Atmospheric mass density...
Loading historical data...
Loading historical data...
Loading historical data...
Loading historical data...
Loading historical data...
Loading historical data...
Loading historical data...

Documentation

Showing up to 5 results
|